Back to catalog

ATLAS V CENTAUR R/B

AliveMEO
NORAD 41329·ROCKET BODY·🇺🇸 United States

Launched Feb 5, 2016 from Cape Canaveral Space Force Station

Loading…

Next Passes (next 24 hours)

TLE

AgingSource: Space-Track

Epoch: Aug 30, 2026, 22:24 UTC

1 41329U 16007B   26242.93381777  .00000029  00000-0  00000-0 0  9995
2 41329  55.7473 101.3392 0108150 358.8245   1.2496  1.91799280 74044

Track ATLAS V CENTAUR R/B in real time with AllMySat

Download on the App Store